TimeCDT,TemperatureF,Dew PointF,Humidity,Sea Level PressureIn,VisibilityMPH,Wind Direction,Wind SpeedMPH,Gust SpeedMPH,PrecipitationIn,Events,Conditions,WindDirDegrees,DateUTC
12:52 AM,46.9,44.1,90,30.01,7.0,NE,6.9,-,N/A,,Overcast,40,2013-04-17 05:52:00
1:52 AM,46.9,44.1,90,29.99,7.0,ENE,8.1,-,N/A,,Overcast,60,2013-04-17 06:52:00
2:52 AM,46.9,44.1,90,29.96,7.0,ENE,6.9,18.4,N/A,,Overcast,60,2013-04-17 07:52:00
3:04 AM,46.4,44.6,93,29.96,7.0,Variable,5.8,-,N/A,,Overcast,0,2013-04-17 08:04:00
3:50 AM,48.2,44.6,87,29.93,8.0,Variable,5.8,-,N/A,,Overcast,0,2013-04-17 08:50:00
3:52 AM,48.0,45.0,89,29.94,8.0,East,5.8,-,N/A,,Overcast,80,2013-04-17 08:52:00
4:52 AM,48.9,46.0,90,29.89,8.0,Variable,3.5,-,N/A,,Mostly Cloudy,0,2013-04-17 09:52:00
5:52 AM,50.0,46.9,89,29.88,7.0,East,5.8,-,N/A,,Mostly Cloudy,90,2013-04-17 10:52:00
6:52 AM,52.0,48.0,86,29.87,7.0,Variable,3.5,-,N/A,,Overcast,0,2013-04-17 11:52:00
7:52 AM,55.0,51.1,86,29.88,6.0,Calm,Calm,-,N/A,,Overcast,0,2013-04-17 12:52:00
8:52 AM,57.0,53.1,87,29.87,6.0,Calm,Calm,-,0.00,,Overcast,0,2013-04-17 13:52:00
9:52 AM,61.0,57.0,87,29.84,6.0,SE,4.6,-,N/A,,Overcast,130,2013-04-17 14:52:00
10:52 AM,71.1,64.0,78,29.82,7.0,South,10.4,18.4,N/A,,Overcast,180,2013-04-17 15:52:00
11:52 AM,75.0,66.9,76,29.80,8.0,South,15.0,23.0,N/A,,Overcast,180,2013-04-17 16:52:00
12:52 PM,75.9,66.9,74,29.78,10.0,South,19.6,33.4,N/A,,Overcast,180,2013-04-17 17:52:00
1:14 PM,77.0,66.2,69,29.78,10.0,South,16.1,32.2,N/A,,Overcast,180,2013-04-17 18:14:00
1:31 PM,77.0,66.2,69,29.77,10.0,South,19.6,32.2,N/A,,Mostly Cloudy,180,2013-04-17 18:31:00
1:52 PM,78.1,66.0,66,29.75,10.0,South,16.1,27.6,N/A,,Mostly Cloudy,180,2013-04-17 18:52:00
2:52 PM,75.9,64.9,69,29.71,10.0,South,12.7,24.2,N/A,,Mostly Cloudy,170,2013-04-17 19:52:00
3:52 PM,78.1,66.0,66,29.68,10.0,South,11.5,21.9,N/A,,Overcast,170,2013-04-17 20:52:00
4:52 PM,78.1,64.9,64,29.65,10.0,South,15.0,24.2,N/A,,Overcast,180,2013-04-17 21:52:00
5:52 PM,79.0,64.0,60,29.64,10.0,South,19.6,31.1,N/A,,Mostly Cloudy,180,2013-04-17 22:52:00
6:52 PM,78.1,64.9,64,29.63,10.0,South,8.1,-,N/A,,Mostly Cloudy,180,2013-04-17 23:52:00
7:52 PM,77.0,64.0,64,29.62,10.0,SSW,10.4,-,N/A,,Overcast,210,2013-04-18 00:52:00
8:20 PM,57.2,53.6,88,29.65,10.0,NW,11.5,-,N/A,,Overcast,320,2013-04-18 01:20:00
8:52 PM,55.0,51.1,86,29.66,10.0,NW,13.8,18.4,N/A,Thunderstorm,Overcast,320,2013-04-18 01:52:00
9:08 PM,53.6,50.0,88,29.65,10.0,NW,9.2,-,N/A,Thunderstorm,Overcast,320,2013-04-18 02:08:00
9:16 PM,53.6,50.0,88,29.67,10.0,NW,10.4,-,N/A,,Overcast,320,2013-04-18 02:16:00
9:30 PM,53.6,50.0,88,29.68,10.0,NW,9.2,-,N/A,Thunderstorm,Overcast,320,2013-04-18 02:30:00
9:52 PM,52.0,48.9,89,29.68,9.0,NW,13.8,19.6,0.00,Rain-Thunderstorm,Light Rain,310,2013-04-18 02:52:00
10:02 PM,51.8,48.2,88,29.71,10.0,NW,11.5,-,0.00,Rain-Thunderstorm,Light Rain,310,2013-04-18 03:02:00
10:23 PM,51.8,48.2,88,29.68,7.0,NW,13.8,-,0.03,Rain-Thunderstorm,Light Thunderstorms and Rain,310,2013-04-18 03:23:00
10:52 PM,51.1,48.9,92,29.64,10.0,Calm,Calm,-,0.03,Rain-Thunderstorm,Light Rain,0,2013-04-18 03:52:00
10:58 PM,51.8,48.2,88,29.68,1.2,Variable,5.8,-,0.31,Rain-Thunderstorm,Heavy Thunderstorms and Rain,0,2013-04-18 03:58:00
11:01 PM,51.8,48.2,88,29.69,1.0,Variable,3.5,-,0.34,Rain-Thunderstorm,Heavy Thunderstorms and Rain,0,2013-04-18 04:01:00
11:08 PM,51.8,48.2,88,29.71,2.0,WNW,10.4,-,0.35,Rain-Thunderstorm,Light Thunderstorms and Rain,300,2013-04-18 04:08:00
11:16 PM,51.8,48.2,88,29.73,1.2,WNW,10.4,-,0.59,Rain-Thunderstorm,Heavy Thunderstorms and Rain,290,2013-04-18 04:16:00
11:26 PM,51.8,50.0,94,29.71,2.0,NW,6.9,-,0.63,Rain-Thunderstorm,Thunderstorms and Rain,320,2013-04-18 04:26:00
11:52 PM,51.1,50.0,96,29.64,6.0,ENE,8.1,-,0.64,Rain-Thunderstorm,Thunderstorms and Rain,60,2013-04-18 04:52:00